Location: Noordwijk
(52.2400°N, 4.4500°E)
Time: 21:05:23
(UTC+00:00)

CAS-4A - Pass Details

Date: 13 December 2022
Orbit: 514 x 531 km, 43.0° (Epoch: 05 February)

Event Time Altitude Azimuth Distance (km) Brightness Sun altitude
Exits shadow 04:01:37 13° 129° (SE) 1,603 ? -32.5°
Drops below altitude 10° 04:02:11 10° 123° (ESE) 1,770 ? -32.4°
Sets 04:04:48 0° 108° (ESE) 2,664 ? -32.0°
